Time,TemperatureF,DewpointF,PressureIn,WindDirection,WindDirectionDegrees,WindSpeedMPH,WindSpeedGustMPH,Humidity,HourlyPrecipIn,Conditions,Clouds,dailyrainin,SoftwareType,DateUTC
2013-09-05 00:02:00,78.6,75.7,30.06,WNW,296,0.0,0.0,91,0.00,,,0.00,meteohub,2013-09-05 05:02:00,
2013-09-05 00:17:00,78.3,75.7,30.05,WNW,296,0.0,1.0,92,0.00,,,0.00,meteohub,2013-09-05 05:17:00,
2013-09-05 00:32:00,78.1,75.9,30.04,WNW,296,0.0,1.0,93,0.00,,,0.00,meteohub,2013-09-05 05:32:00,
2013-09-05 00:47:00,77.7,75.6,30.04,WNW,296,0.0,1.0,93,0.00,,,0.00,meteohub,2013-09-05 05:47:00,
2013-09-05 01:17:00,77.0,74.8,30.03,WNW,297,0.0,2.0,93,0.00,,,0.00,meteohub,2013-09-05 06:17:00,
2013-09-05 01:32:00,76.8,75.0,30.03,WNW,298,0.0,1.0,94,0.00,,,0.00,meteohub,2013-09-05 06:32:00,
2013-09-05 01:47:00,76.5,74.7,30.04,NNE,30,0.0,2.0,94,0.00,,,0.00,meteohub,2013-09-05 06:47:00,
2013-09-05 02:02:00,76.3,74.5,30.04,NE,40,0.0,2.0,94,0.00,,,0.00,meteohub,2013-09-05 07:02:00,
2013-09-05 02:17:00,76.3,74.5,30.04,NE,41,0.0,2.0,94,0.00,,,0.00,meteohub,2013-09-05 07:17:00,
2013-09-05 02:32:00,76.1,74.3,30.03,NE,41,0.0,2.0,94,0.00,,,0.00,meteohub,2013-09-05 07:32:00,
2013-09-05 02:47:00,75.9,74.1,30.03,NE,41,1.0,2.0,94,0.00,,,0.00,meteohub,2013-09-05 07:47:00,
2013-09-05 03:02:00,75.9,74.1,30.04,ENE,70,0.0,2.0,94,0.00,,,0.00,meteohub,2013-09-05 08:02:00,
2013-09-05 03:17:00,75.7,73.9,30.04,ENE,70,1.0,2.0,94,0.00,,,0.00,meteohub,2013-09-05 08:17:00,
2013-09-05 03:32:00,75.6,73.8,30.03,ENE,70,0.0,3.0,94,0.00,,,0.00,meteohub,2013-09-05 08:32:00,
2013-09-05 03:47:00,75.7,73.9,30.03,ENE,73,1.0,3.0,94,0.00,,,0.00,meteohub,2013-09-05 08:47:00,
2013-09-05 04:02:00,75.7,73.9,30.04,ENE,73,0.0,2.0,94,0.00,,,0.00,meteohub,2013-09-05 09:02:00,
2013-09-05 04:17:00,75.7,73.9,30.04,ENE,73,2.0,2.0,94,0.00,,,0.00,meteohub,2013-09-05 09:17:00,
2013-09-05 04:32:00,75.7,73.9,30.04,ENE,73,0.0,3.0,94,0.00,,,0.00,meteohub,2013-09-05 09:32:00,
2013-09-05 04:47:00,75.7,73.9,30.04,ENE,74,0.0,3.0,94,0.00,,,0.00,meteohub,2013-09-05 09:47:00,
2013-09-05 05:02:00,75.6,73.8,30.05,NNE,30,0.0,1.0,94,0.00,,,0.00,meteohub,2013-09-05 10:02:00,
2013-09-05 05:17:00,75.7,73.9,30.06,NE,36,1.0,3.0,94,0.00,,,0.00,meteohub,2013-09-05 10:17:00,
2013-09-05 05:32:00,75.4,73.6,30.06,NE,36,0.0,2.0,94,0.00,,,0.00,meteohub,2013-09-05 10:32:00,
2013-09-05 05:47:00,75.0,73.2,30.06,NE,36,0.0,1.0,94,0.00,,,0.00,meteohub,2013-09-05 10:47:00,
2013-09-05 06:02:00,75.0,73.4,30.06,NE,39,0.0,2.0,95,0.00,,,0.00,meteohub,2013-09-05 11:02:00,
2013-09-05 06:17:00,74.8,73.2,30.06,NE,39,0.0,1.0,95,0.00,,,0.00,meteohub,2013-09-05 11:17:00,
2013-09-05 06:32:00,75.0,73.4,30.07,NE,39,0.0,1.0,95,0.00,,,0.00,meteohub,2013-09-05 11:32:00,
2013-09-05 06:47:00,75.0,73.4,30.07,NE,39,1.0,1.0,95,0.00,,,0.00,meteohub,2013-09-05 11:47:00,
2013-09-05 07:02:00,75.2,73.6,30.08,NE,39,0.0,2.0,95,0.00,,,0.00,meteohub,2013-09-05 12:02:00,
2013-09-05 07:17:00,75.6,73.9,30.08,NE,39,0.0,1.0,95,0.00,,,0.00,meteohub,2013-09-05 12:17:00,
2013-09-05 07:32:00,76.1,74.3,30.08,NE,39,0.0,0.0,94,0.00,,,0.00,meteohub,2013-09-05 12:32:00,
2013-09-05 07:47:00,76.6,74.8,30.09,NE,39,0.0,0.0,94,0.00,,,0.00,meteohub,2013-09-05 12:47:00,
2013-09-05 08:02:00,77.2,75.4,30.09,NE,39,0.0,0.0,94,0.00,,,0.00,meteohub,2013-09-05 13:02:00,
2013-09-05 08:17:00,78.1,76.3,30.09,NE,39,0.0,0.0,94,0.00,,,0.00,meteohub,2013-09-05 13:17:00,
2013-09-05 08:32:00,78.8,76.3,30.10,NE,39,0.0,0.0,92,0.00,,,0.00,meteohub,2013-09-05 13:32:00,
2013-09-05 08:47:00,79.7,76.8,30.10,NE,39,0.0,0.0,91,0.00,,,0.00,meteohub,2013-09-05 13:47:00,
2013-09-05 09:02:00,81.1,76.8,30.10,NW,324,1.0,4.0,87,0.00,,,0.00,meteohub,2013-09-05 14:02:00,
2013-09-05 09:17:00,81.3,77.4,30.11,NW,323,3.0,7.0,88,0.00,,,0.00,meteohub,2013-09-05 14:17:00,
2013-09-05 09:32:00,81.5,77.9,30.11,NW,324,5.0,6.0,89,0.00,,,0.00,meteohub,2013-09-05 14:32:00,
2013-09-05 09:47:00,81.7,76.6,30.11,NNW,327,4.0,8.0,85,0.00,,,0.00,meteohub,2013-09-05 14:47:00,
2013-09-05 10:02:00,82.2,76.8,30.11,NW,326,4.0,7.0,84,0.00,,,0.00,meteohub,2013-09-05 15:02:00,
2013-09-05 10:17:00,82.6,76.5,30.12,NW,325,4.0,7.0,82,0.00,,,0.00,meteohub,2013-09-05 15:17:00,
2013-09-05 10:32:00,82.8,77.0,30.12,NW,325,4.0,7.0,83,0.00,,,0.00,meteohub,2013-09-05 15:32:00,
2013-09-05 10:47:00,83.1,77.0,30.12,NW,321,3.0,7.0,82,0.00,,,0.00,meteohub,2013-09-05 15:47:00,
2013-09-05 11:02:00,83.5,77.7,30.11,NW,321,3.0,5.0,83,0.00,,,0.00,meteohub,2013-09-05 16:02:00,
2013-09-05 11:17:00,83.8,77.4,30.12,NW,317,2.0,5.0,81,0.00,,,0.00,meteohub,2013-09-05 16:17:00,
2013-09-05 11:32:00,84.2,77.7,30.11,NW,317,3.0,4.0,81,0.00,,,0.00,meteohub,2013-09-05 16:32:00,
2013-09-05 11:47:00,84.9,78.1,30.10,NW,304,4.0,5.0,80,0.00,,,0.00,meteohub,2013-09-05 16:47:00,
2013-09-05 12:02:00,85.3,77.2,30.10,WNW,295,4.0,5.0,77,0.00,,,0.00,meteohub,2013-09-05 17:02:00,
2013-09-05 12:17:00,85.3,77.2,30.10,WNW,297,4.0,6.0,77,0.00,,,0.00,meteohub,2013-09-05 17:17:00,
2013-09-05 12:32:00,85.6,77.2,30.09,NW,317,3.0,5.0,76,0.00,,,0.00,meteohub,2013-09-05 17:32:00,
2013-09-05 12:47:00,86.0,77.2,30.09,NW,312,4.0,5.0,75,0.00,,,0.00,meteohub,2013-09-05 17:47:00,
2013-09-05 13:02:00,86.2,77.7,30.08,NW,306,3.0,6.0,76,0.00,,,0.00,meteohub,2013-09-05 18:02:00,
2013-09-05 13:17:00,86.5,76.5,30.08,WNW,301,3.0,5.0,72,0.00,,,0.00,meteohub,2013-09-05 18:17:00,
2013-09-05 13:32:00,87.1,77.4,30.07,WNW,298,4.0,5.0,73,0.00,,,0.00,meteohub,2013-09-05 18:32:00,
2013-09-05 13:47:00,87.1,77.0,30.07,WSW,247,5.0,5.0,72,0.00,,,0.00,meteohub,2013-09-05 18:47:00,
2013-09-05 14:02:00,87.3,77.2,30.06,WSW,251,5.0,5.0,72,0.00,,,0.00,meteohub,2013-09-05 19:02:00,
2013-09-05 14:17:00,87.1,77.0,30.06,SW,228,4.0,6.0,72,0.00,,,0.00,meteohub,2013-09-05 19:17:00,
2013-09-05 14:32:00,87.4,78.1,30.05,South,178,5.0,11.0,74,0.00,,,0.00,meteohub,2013-09-05 19:32:00,
2013-09-05 14:47:00,87.8,78.4,30.05,SSW,193,5.0,11.0,74,0.00,,,0.00,meteohub,2013-09-05 19:47:00,
2013-09-05 15:02:00,87.4,78.1,30.04,SW,215,6.0,9.0,74,0.00,,,0.00,meteohub,2013-09-05 20:02:00,
2013-09-05 15:17:00,86.9,78.1,30.04,SSW,201,2.0,8.0,75,0.00,,,0.00,meteohub,2013-09-05 20:17:00,
2013-09-05 15:32:00,87.4,78.6,30.03,South,188,3.0,8.0,75,0.00,,,0.00,meteohub,2013-09-05 20:32:00,
2013-09-05 15:47:00,86.7,78.3,30.04,SSW,199,7.0,11.0,76,0.00,,,0.00,meteohub,2013-09-05 20:47:00,
2013-09-05 16:02:00,86.9,78.4,30.04,South,171,5.0,11.0,76,0.00,,,0.00,meteohub,2013-09-05 21:02:00,
2013-09-05 16:17:00,87.4,77.7,30.03,South,185,6.0,12.0,73,0.00,,,0.00,meteohub,2013-09-05 21:17:00,
2013-09-05 16:32:00,87.4,76.8,30.03,South,173,7.0,15.0,71,0.00,,,0.00,meteohub,2013-09-05 21:32:00,
2013-09-05 16:47:00,88.0,78.3,30.04,SSW,193,9.0,12.0,73,0.00,,,0.00,meteohub,2013-09-05 21:47:00,
2013-09-05 17:02:00,87.8,78.4,30.04,South,187,5.0,11.0,74,0.00,,,0.00,meteohub,2013-09-05 22:02:00,
2013-09-05 17:17:00,87.6,78.6,30.04,SSW,207,8.0,10.0,75,0.00,,,0.00,meteohub,2013-09-05 22:17:00,
2013-09-05 17:32:00,87.4,78.6,30.04,South,184,6.0,10.0,75,0.00,,,0.00,meteohub,2013-09-05 22:32:00,
2013-09-05 17:47:00,87.4,77.4,30.04,SSW,197,2.0,8.0,72,0.00,,,0.00,meteohub,2013-09-05 22:47:00,
2013-09-05 18:02:00,86.7,77.4,30.04,South,185,0.0,7.0,74,0.00,,,0.00,meteohub,2013-09-05 23:02:00,
2013-09-05 18:17:00,83.5,77.7,30.04,NE,43,0.0,3.0,83,0.00,,,0.00,meteohub,2013-09-05 23:17:00,
2013-09-05 18:32:00,81.3,77.7,30.04,NE,44,0.0,2.0,89,0.00,,,0.00,meteohub,2013-09-05 23:32:00,
2013-09-05 18:47:00,80.8,77.5,30.04,South,177,0.0,2.0,90,0.00,,,0.00,meteohub,2013-09-05 23:47:00,
2013-09-05 19:02:00,80.4,77.5,30.05,SSE,167,0.0,1.0,91,0.00,,,0.00,meteohub,2013-09-06 00:02:00,
2013-09-05 19:17:00,80.1,77.2,30.05,SSE,167,0.0,1.0,91,0.00,,,0.00,meteohub,2013-09-06 00:17:00,
2013-09-05 19:32:00,79.7,77.2,30.05,SSE,167,1.0,1.0,92,0.00,,,0.00,meteohub,2013-09-06 00:32:00,
2013-09-05 19:47:00,79.5,77.0,30.05,SSE,167,0.0,2.0,92,0.00,,,0.00,meteohub,2013-09-06 00:47:00,
2013-09-05 20:02:00,79.3,76.8,30.05,SSE,167,0.0,1.0,92,0.00,,,0.00,meteohub,2013-09-06 01:02:00,
2013-09-05 20:17:00,79.3,77.2,30.05,SSE,167,0.0,0.0,93,0.00,,,0.00,meteohub,2013-09-06 01:17:00,
2013-09-05 20:32:00,79.3,77.2,30.06,ESE,119,0.0,1.0,93,0.00,,,0.00,meteohub,2013-09-06 01:32:00,
2013-09-05 20:47:00,79.0,76.8,30.06,ESE,119,0.0,1.0,93,0.00,,,0.00,meteohub,2013-09-06 01:47:00,
2013-09-05 21:02:00,78.4,75.9,30.07,ESE,119,0.0,1.0,92,0.00,,,0.00,meteohub,2013-09-06 02:02:00,
2013-09-05 21:17:00,78.1,75.6,30.08,ESE,119,0.0,1.0,92,0.00,,,0.00,meteohub,2013-09-06 02:17:00,
2013-09-05 21:32:00,77.9,75.4,30.08,ESE,119,0.0,1.0,92,0.00,,,0.00,meteohub,2013-09-06 02:32:00,
2013-09-05 21:47:00,77.7,75.6,30.08,ESE,119,0.0,0.0,93,0.00,,,0.00,meteohub,2013-09-06 02:47:00,
2013-09-05 22:02:00,77.5,75.4,30.07,ESE,119,0.0,0.0,93,0.00,,,0.00,meteohub,2013-09-06 03:02:00,
2013-09-05 22:17:00,77.4,75.2,30.08,ESE,119,0.0,0.0,93,0.00,,,0.00,meteohub,2013-09-06 03:17:00,
2013-09-05 22:32:00,77.2,74.7,30.08,ESE,118,1.0,1.0,92,0.00,,,0.00,meteohub,2013-09-06 03:32:00,
2013-09-05 22:47:00,76.8,74.3,30.08,ESE,118,0.0,1.0,92,0.00,,,0.00,meteohub,2013-09-06 03:47:00,
2013-09-05 23:02:00,76.8,74.3,30.09,ESE,118,0.0,1.0,92,0.00,,,0.00,meteohub,2013-09-06 04:02:00,
2013-09-05 23:17:00,76.6,74.1,30.09,ESE,118,0.0,1.0,92,0.00,,,0.00,meteohub,2013-09-06 04:17:00,
2013-09-05 23:32:00,76.6,74.1,30.08,ESE,118,0.0,1.0,92,0.00,,,0.00,meteohub,2013-09-06 04:32:00,
2013-09-05 23:47:00,76.5,74.3,30.08,ESE,118,1.0,0.0,93,0.00,,,0.00,meteohub,2013-09-06 04:47:00,